Regional Weather Roundup
Issued by NWS

Home | Current Version | Previous Version | Graphics & Text | Print | Product List | Glossary On
Versions: 1 2 3 4 5 6 7 8 9 10 11 12 13 14 15 16 17 18 19 20 21 22 23 24 25 26 27 28 29 30 31 32 33 34 35 36 37 38 39 40 41 42 43 44
892
ASUS44 KJAN 051310
RWRMS

MISSISSIPPI HOURLY WEATHER ROUNDUP
NATIONAL WEATHER SERVICE JACKSON MS
700 AM CST THU MAR 05 2015

NOTE: "FAIR: INDICATES FEW OR NO CLOUDS BELOW 12,000 FEET WITH NO
SIGNIFICANT WEATHER AND/OR OBSTRUCTIONS TO VISIBILITY.

MSZ001>002-007>008-010>013-018>021-025>028-034>036-051400-
NORTHWEST MISSISSIPPI

CITY           SKY/WX    TMP DP  RH WIND       PRES   REMARKS
CLARKSDALE       N/A     23  19  86 CALM      30.38R
CLEVELAND      CLOUDY    24  21  89 N26G35    30.35F WCI   8
GREENWOOD      CLOUDY    25  22  88 N22G29    30.31S FOG     WCI  10
GREENVILLE     CLOUDY    25  19  78 MISG      30.37R
OXFORD         CLOUDY    21  18  86 N13G22    30.36R WCI   9
TUNICA         LGT SNOW  23  21  93 N10       30.42R WCI  12
$$

MSZ003>006-009-014>017-022>024-029>033-037>039-051400-
NORTHEAST MISSISSIPPI

CITY           SKY/WX    TMP DP  RH WIND       PRES   REMARKS
COLUMBUS AFB   FRZ RAIN  32  30  92 NW14      30.22R FOG     WCI  22
CORINTH        CLOUDY    23  18  80 N17G28    30.28R WCI   9
GOLDN TRIANGLE FRZ RAIN  32  28  86 NW14G20   30.18R WCI  22
STARKVILLE     LGT SNOW  32  32 100 CALM      30.25R
TUPELO         CLOUDY    25  21  85 N16G23    30.28R FOG     WCI  12
$$

MSZ040-058-051400-
CENTRAL MISSISSIPPI

CITY           SKY/WX    TMP DP  RH WIND       PRES   REMARKS
JACKSON INTL   FRZ RAIN  33  31  92 N12       30.22R FOG     WCI  24
JACKSON HAWKNS NOT AVBL
MERIDIAN KEY   LGT RAIN  35  35 100 N16G26    30.19R WCI  25
MERIDIAN NAS   RAIN      36  32  87 N18       30.18R FOG     WCI  25
VICKSBURG      MIX PCPN  31  27  85 N16G25    30.31R FOG     WCI  20
$$

MSZ059>079-051400-
SOUTH MISSISSIPPI

CITY           SKY/WX    TMP DP  RH WIND       PRES   REMARKS
BROOKHAVEN     RAIN      34  34 100 CALM      30.23R
HATTIESBURG    CLOUDY    42  39  89 NW17G26   30.16R
MCCOMB         CLOUDY    34  32  92 N16G22    30.19R WCI  24
NATCHEZ        NOT AVBL
PINE BELT      CLOUDY    39  34  81 N17G28    30.19R WCI  30
$$

MSZ080>082-051400-
COASTAL MISSISSIPPI

CITY           SKY/WX    TMP DP  RH WIND       PRES   REMARKS
BAY ST LOUIS   CLOUDY    48  43  81 NW18G29   30.07
BILOXI         FOG       65  65 100 SW5       29.98R VSB 0
PASCAGOULA     CLOUDY    68  68 100 W3        29.99R FOG
GULFPORT       CLOUDY    61  58  90 NW24G37   30.01R
$$



USA.gov is the U.S. government's official web portal to all federal, state and local government web resources and services.